www.pogodaiklimat.ru

Погода и климат >> Архив погоды >> Россия >> Алтай >> Кызыл-Озек


ПОГОДА в Кызыл-Озеке

  • Прогноз погоды в Кызыл-Озеке
  • Монитор погоды в Кызыл-Озеке
  • Климат города

АРХИВ ПОГОДЫ в Кызыл-Озеке

Время (UTC), дата Ветер
(напр.,м/с)
 
Видим.   Явления Облачность Т
(С)
Тd
(С)
f
(%)
Тe
(С)
Тes
(С)
Комфортность P
(гПа)
Po
(гПа)
Тmin
(С)
Tmax
(С)
R
(мм)
R24
(мм)
S
(см)
03 6.11 штиль 0 50 км 10/10 1000 м
[Sc]
-3.1 -6.0 80 -4 -4 1025.0 984.0
06 6.11 СЗ 2 50 км 10/10 1000 м
[Sc]
+1.3 -5.3 61 -2 -2 1023.1 982.8
09 6.11 СЗ 1 50 км 10/10
[Sc]
+2.1 -3.8 65 +1 +1 1023.2 983.1
12 6.11 штиль 0 2000 м слабый ливневой снег 10/10 600 м
[Cb cap]
+0.1 -1.5 89 -1 -1 1023.2 982.8 +2.2 0.3
15 6.11 Ю 1 50 км в посл. час ливневой снег 10/10 1000 м
[Sc diur, vesp]
+0.1 -1.6 88 -2 -2 1022.5 981.9
18 6.11 штиль 0 50 км {ливн. осадки} 10/10 1000 м
[Sc diur, vesp]
-0.6 -2.1 90 -2 -2 1022.1 981.6
21 6.11 штиль 0 50 км 10/10 1000 м
[Sc diur, vesp]
-1.1 -2.6 90 -2 -2 1021.5 981.0
00 7.11 штиль 0 50 км 10/10 1000 м
[Sc]
-0.9 -2.3 90 -2 -2 1021.1 980.6 -1.2 0.0 1
03 7.11 Ю 1 50 км 8/8 1000 м
[Sc Ac trans]
-0.5 -2.0 90 -3 -3 1021.1 980.7
06 7.11 СЗ 1 50 км 10/10 1000 м
[Sc]
+1.9 -1.4 79 0 0 1019.8 979.8
09 7.11 С 2 50 км 10/6 1000 м
[Sc Ac trans]
+2.3 -1.4 77 -1 -1 1018.8 978.9
12 7.11 СЗ 1 50 км 10/10 1000 м
[Sc]
+0.4 -1.8 85 -2 -2 1018.5 978.3 +3.2
15 7.11 З 1 50 км 10/10 1000 м
[Sc]
+0.1 -1.8 87 -2 -2 1017.6 977.4
18 7.11 штиль 0 50 км 10/10 1000 м
[Sc]
-0.6 -2.1 90 -2 -2 1016.7 976.5
21 7.11 штиль 0 50 км 10/10 1000 м
[Sc]
-0.8 -2.2 90 -2 -2 1015.9 975.6
00 8.11 штиль 0 50 км 10/10 1000 м
[Sc]
-0.6 -2.0 90 -2 -2 1015.8 975.6 -0.9 0
03 8.11 Ю 1 2000 м слабый ливневой снег 10/10 600 м
[Cb cap]
-0.3 -1.6 91 -2 -2 1016.4 976.2
06 8.11 З 1 20 км туман на расстоянии {ливн. осадки} 10/10 1000 м
[Sc]
+1.8 -1.0 82 0 0 1014.9 975.0
09 8.11 СЗ 1 10 км туман на расстоянии 10/10 1000 м
[Sc]
+1.5 -0.8 85 -0 -0 1013.8 974.0
12 8.11 Ю 1 50 км 10/10 1000 м
[Sc]
+0.5 -1.3 88 -1 -1 1011.7 971.9 +2.2 0.7
15 8.11 штиль 0 50 км 10/10 1000 м
[Sc]
-0.4 -2.0 89 -2 -2 1009.8 969.8
18 8.11 штиль 0 50 км 10/10 1000 м
[Sc]
-0.3 -1.8 90 -2 -2 1008.4 968.5
21 8.11 штиль 0 50 км 10/10 1000 м
[Sc]
+0.6 -1.7 85 -1 -1 1006.4 966.7
00 9.11 СЗ 4 50 км 10/10 1000 м
[Sc]
+1.3 -1.8 80 -4 -4 1006.5 967.0 -1.1
03 9.11 С 1 10 км слабый ливневой дождь со снегом 10/10 600 м
[Cb cap]
+1.2 -1.4 83 -1 -1 1007.6 968.0
06 9.11 штиль 0 50 км в посл. час ливневой снег 10/10 1000 м
[Sc diur, vesp]
+2.6 -0.0 83 +2 +2 1009.5 970.0
09 9.11 СЗ 2
{12}
1000 м ливневой снег {метель} 10/10 600 м
[Cb cap]
-1.4 -3.3 87 -5 -5 1014.3 974.0
12 9.11 СЗ 3
{10}
2000 м слабый ливневой снег {метель} 10/10 600 м
[Cb cap]
-6.2 -9.0 81 -12 -12 1020.8 979.5 +3.6 6
15 9.11 С 2 2000 м слабый ливневой снег 10/10 600 м
[Cb cap]
-9.4 -12.7 77 -14 -14 1024.4 982.5
18 9.11 С 2 2000 м слабый ливневой снег 10/10 600 м
[Cb cap]
-10.6 -14.5 73 -15 -15 1026.3 984.1
21 9.11 С 1 2000 м слабый ливневой снег 10/10 600 м
[Cb cap]
-11.8 -16.1 70 -14 -14 1026.9 984.5
00 10.11 СЗ 2 2000 м слабый ливневой снег 10/10 600 м
[Cb cap]
-12.4 -15.8 76 -17 -17 1026.9 984.4 -12.4 1 8
06 10.11 С 2 2000 м слабый ливневой снег 10/10 600 м
[Cb cap]
-12.6 -16.2 74 -17 -17 1027.8 985.2
09 10.11 С 2 2000 м слабый ливневой снег 10/10 600 м
[Cb cap]
-12.7 -16.7 72 -17 -17 1028.7 986.1
12 10.11 С 2 2000 м слабый ливневой снег 10/10 600 м
[Cb cap]
-13.9 -17.5 74 -19 -19 1029.0 986.2 -12.4 3
15 10.11 СЗ 1 2000 м слабый ливневой снег 10/10 600 м
[Cb cap]
-14.5 -17.8 76 -17 -17 1028.8 985.8
18 10.11 СЗ 2 2000 м слабый ливневой снег 10/10 600 м
[Cb cap]
-15.3 -18.4 77 -20 -20 1028.6 985.5
21 10.11 С 1 2000 м слабый ливневой снег 10/10 600 м
[Cb cap]
-16.0 -19.7 73 -19 -19 1029.5 986.3
00 11.11 С 1 2000 м слабый ливневой снег 10/10 600 м
[Cb cap]
-16.5 -20.4 72 -19 -19 1031.5 988.2 -16.5 3 13
06 11.11 СЗ 2 50 км {ливн. осадки} 3/3 1000 м
[Sc]
-15.3 -21.5 59 -20 -19 1034.6 991.3
09 11.11 С 1 50 км 4/4 1000 м
[Sc]
-15.8 -21.3 63 -18 -18 1035.3 991.9
12 11.11 СВ 2 50 км 3/3 1000 м
[Sc]
-21.2 -24.5 75 -27 -27 1037.1 992.7 -14.8 0.0
15 11.11 Ю 1 50 км 4/4 1000 м
[Sc]
-21.0 -24.3 75 -24 -24 1037.3 992.9
18 11.11 штиль 0 50 км 10/10 1000 м
[Sc]
-20.2 -23.5 75 -20 -20 1037.3 993.1
21 11.11 штиль 0 50 км 10/10 1000 м
[Sc]
-19.9 -23.1 76 -20 -20 1037.5 993.3
00 12.11 В 1 50 км 10/10 1000 м
[Sc]
-20.5 -24.8 68 -24 -24 1038.6 994.2 -22.4 12
03 12.11 ЮЗ 1 50 км 10/0
[Ci fib]
-22.6 -26.8 68 -26 -26 1040.6 995.8 -23.0
06 12.11 штиль 0 50 км 3/0
[Ci fib]
-14.3 -23.6 45 -14 -11 1039.3 996.0
09 12.11 СЗ 2 50 км ясно -14.8 -22.4 52 -20 -19 1039.2 995.8
15 12.11 ЮВ 1 50 км ясно -22.5 -25.9 74 -26 -26 1041.7 996.9
18 12.11 ЮВ 2 50 км 10/0
[Ac trans Ci fib]
-22.0 -25.8 71 -28 -28 1041.3 996.6
21 12.11 Ю 2 50 км 10/3 1000 м
[Sc Ac trans Ci fib]
-19.0 -22.5 74 -25 -25 1039.2 995.1
00 13.11 Ю 1 50 км 10/10 1000 м
[Sc]
-14.5 -18.3 73 -17 -17 1037.7 994.4 -23.1 11

 

Местоположение метеостанции Кызыл-Озек (Алтай, Россия): широта 51.90 долгота 86.00 высота над уровнем моря 326 м.

В архиве по умолчанию представлена погода в Кызыл-Озеке за последнюю неделю. Архивные данные за месяц целиком и за предыдущие месяцы, начиная с января 2011 года, Вы можете получить, выбрав интересующий диапазон дат из раскрывающегося списка и нажав кнопку "Ввод!".


*Определитесь, кто Вы:
робот инопланетянин человек

Внимание! Время в таблицах - всемирное. Для получения местного времени необходимо прибавить поправку, которая в Кызыл-Озеке равна 7 ч.

Смотрите также архив погоды в соседних городах и на ближайших метеорологических станциях:

Погода в Горно-Алтайске (Алтай, Россия) (14 км)
Погода в Чое (Алтай, Россия) (38 км)
Погода в Чемале (Алтай, Россия) (58 км)
Погода в Шебалино (Алтай, Россия) (70 км)
Погода в Белокурихе (Алтайский край, Россия) (71 км)
Погода в Турочаке (Алтай, Россия) (87 км)
Погода в Бийске АМС (Алтайский край, Россия) (90 км)
Погода в Яйлю (Алтай, Россия) (111 км)
Погода в Бийске (Алтайский край, Россия) (113 км)
Погода в Солонешном (Алтайский край, Россия) (119 км)

Пояснения к столбцам:

Ветер - указаны скорость ветра в м/с - средняя за 10 мин, порывы в срок и между сроками (в фигурных скобках) и направление, откуда дует ветер: С - северный, СВ - северо-восточный, В - восточный, ЮВ - юго-восточный, Ю - южный, ЮЗ - юго-западный, З - западный, СЗ - северо-западный.
Видимость - горизонтальная дальность видимости в метрах или километрах. При видимости от 1 до 10 км при отсутствии осадков обычно наблюдается дымка, при ухудшении видимости до 1 км и менее - туман. В сухую погоду видимость может ухудшаться дымом, пылью или мглою.
Явления - указаны атмосферные явления, наблюдавшиеся в срок или в последний час перед сроком; фигурными скобками обозначены явления, наблюдавшиеся между сроками (за 1-3 часа до срока); квадратными скобками обозначены град или гололедные отложения с указанием их диаметра в мм.
Облачность - указаны через наклонную черту общая и нижняя облачность в баллах и высота нижней границы облаков в метрах; квадратными скобками обозначены формы облаков: Ci - перистые, Cs - перисто-слоистые, Cc - перисто-кучевые, Ac - высококучевые, As - высокослоистые, Sc - слоисто-кучевые, Ns - слоисто-дождевые, Cu - кучевые, Cb - кучево-дождевые. Подробнее классификацию облаков см. в Атласе облаков (PDF).
T - Температура воздуха - температура, измеренная на высоте 2 м над землей.
Td - Температура точки росы - температура, при понижении до которой содержащийся в воздухе водяной пар достигнет насыщения.
f - Относительная влажность воздуха - влажноcть воздуха, измеренная на высоте 2 м над землей.
Te - Эффективная температура - температура, которую ощущает одетый по сезону человек в тени. Характеристика душности погоды. При расчете учитывается влияние влажности воздуха и скорости ветра на теплоощущения человека.
Tes - Эффективная температура на солнце - температура, которую ощущает человек, с поправкой на солнечный нагрев. Характеристика знойности погоды. Зависит от высоты солнца над горизонтом, облачности и скорости ветра. Ночью, в пасмурную погоду, а также при ветре 12 м/с и более поправка равна нулю.
P - Атмосферное давление - приведенное к уровню моря атмосферное давление.
Po - Атмосферное давление - измеренное на уровне метеостанции атмосферное давление.
Tmin - Минимальная температура - минимум температуры воздуха на высоте 2 м над землей.
Tmax - Максимальная температура - максимум температуры воздуха на высоте 2 м над землей.
R - Количество осадков - Количество выпавших осадков за период времени, мм. При наведении курсора мыши на число - период времени, за который выпало указанное количество осадков.
R24 - Количество осадков - Количество выпавших осадков за 24 часа, мм.
S - Снежный покров - Высота снежного покрова, см. При наведении курсора мыши на число - состояние снежного покрова и степень покрытия местности в баллах.